Погода в Фергане

Узбекистан     40°23′21″N   71°46′58″E
темп.,
°C
ветер,
м/с
пор.,
м/с
влажн.,
%
обл.,
%
осадки,
мм/ч
давл.,
гПа
погр.,
м
3 марта, ср
ср323:00+11св2230100 0.0 102423
02:00+10с2239100 0.0 102343
05:00+9всв2263100 0.1 102446
08:00+8вюв3383100 0.8 1023154
11:00+9всв3365100 1.1 1022557
14:00+12св335195 0.0 10201200
17:00+11св325997 0.1 1021667
20:00+9всв4774100 0.0 1024221
4 марта, чт
чт423:00+7ссв2479100 0.0 1024144
02:00+6св128779 0.0 102436
05:00+5св128881 0.0 102424
08:00+6юв0178100 0.0 102474
11:00+11св345193 0.0 1021787
14:00+14всв3338100 0.0 10181085
17:00+14ссв1137100 0.0 1019869
20:00+11зсз1254100 0.1 102257
5 марта, пт
пт523:00+10юз1159100 0.3 102333
02:00+10ю1466100 0.3 1023216
05:00+9юз2572100 0.9 1024313
08:00+10з51054100 0.0 10271000
11:00+12з5737100 0.0 10261242
14:00+14зсз3329100 0.0 10241674
17:00+13ссв333081 0.0 1025843
20:00+10всв485925 0.0 1028257
6 марта, сб
сб623:00+8св236515 0.0 102781
02:00+6св236211 0.0 102547
05:00+6всв126356 0.0 102325
08:00+7всв125799 0.0 101975
11:00+12всв343498 0.0 1012591
14:00+15з1123100 0.0 1010845
17:00+15зсз0120100 0.0 1011908
20:00+12зсз3732100 0.0 1013274
7 марта, вс
вс723:00+11вюв1137100 0.0 101525
02:00+9св1252100 0.0 101547
05:00+8з4660100 0.0 1015156
08:00+8з4667100 0.0 1017327
11:00+12зюз3449100 0.0 10161174
14:00+13зсз4443100 0.0 10151433
17:00+13зсз334494 0.0 10161112
20:00+10сз225672 0.0 101937